Location: doobydoo
(53.3403°N, 2.6908°W)
Time: 13:16:43
(UTC+00:00)

ISS - Pass Details

Date: 26 December 2021
Orbit: 413 x 422 km, 51.6° (Epoch: 19 January)

Event Time Altitude Azimuth Distance (km) Brightness Sun altitude
Exits shadow 05:55:18 44° 181° (S) 600 -3.0 -20.9°
Maximum altitude 05:55:37 45° 162° (SSE) 585 -2.9 -20.8°
Drops below altitude 10° 05:58:53 10° 89° (E) 1,513 0.2 -20.4°
Sets 06:01:02 0° 83° (E) 2,381 1.4 -20.0°
